Lexington Weather

Lexington, Massachusetts, USA

38°F
1/28/2023 10:24pm 
  • Lexington Conditions: Clear
  • Temperature: 37.9°F / 3.3°CColder 0.9°F than last hour.
  • Dew Point: 28.0°FIncreased 0.7°Fsince last hour.
  • Relative Humidity: 67%Increased 4.0% since last hour.
  • Wind: Calm, 10-min avg: Calm, gust: None
  • Barometer: 30.26 in Steady
  • Visibility: 10 miles
  • Rain Today: 0.00 in
  •   

Regional Weather Roundup
for Boston, MA

        
000
ASUS41 KBOX 220610
RWRBOX

REGIONAL WEATHER ROUNDUP
NATIONAL WEATHER SERVICE BOSTON/NORTON MA
100 AM EST SUN JAN 22 2023

NOTE:  "FAIR" INDICATES FEW OR NO CLOUDS BELOW 12,000 FEET WITH NO 
SIGNIFICANT WEATHER AND/OR OBSTRUCTIONS TO VISIBILITY.

MAZALL-220700-
EASTERN MASSACHUSETTS
  
CITY           SKY/WX    TMP DP  RH WIND       PRES   REMARKS
BOSTON         CLOUDY    29  20  69 W12       30.22R WCI  19          
6HR MIN TEMP:  29; 6HR MAX TEMP:  30;                                

BEVERLY        CLOUDY    27  20  75 W6        30.20R WCI  20          
LAWRENCE       CLOUDY    28  19  69 W5        30.21S WCI  23          
BEDFORD        CLOUDY    29  20  69 VRB5      30.20R WCI  24          
NORWOOD        CLOUDY    31  21  66 NW3       30.21S                  
MARSHFIELD     CLOUDY    28  21  74 CALM      30.21S                  
PLYMOUTH       CLOUDY    30  21  69 NW7       30.19F WCI  23          
TAUNTON          N/A    N/A N/A N/A MISG      30.20F                  
NEW BEDFORD    CLOUDY    31  26  82 CALM      30.20F                  
$$

MAZALL-220700-
CAPE COD AND THE ISLANDS
  
CITY           SKY/WX    TMP DP  RH WIND       PRES   REMARKS
FALMOUTH       CLOUDY    30  21  69 CALM      30.20F                  
HYANNIS        CLOUDY    29  22  75 W6        30.20F WCI  23          
CHATHAM        CLOUDY    32  22  66 VRB3      30.21S                  
PROVINCETOWN   CLOUDY    30  23  75 NW5       30.21F WCI  25          
NANTUCKET      CLOUDY    32  21  64 NW5       30.21S WCI  27          
MARTHAS VNYRD  CLOUDY    32  24  72 CALM      30.20F                  
$$
 
MAZALL-220700-
CENTRAL AND WESTERN MASSACHUSETTS
  
CITY           SKY/WX    TMP DP  RH WIND       PRES   REMARKS
WORCESTER      CLOUDY    26  22  84 CALM      30.14S                  
6HR MIN TEMP:  26; 6HR MAX TEMP:  28;                                

FITCHBURG      CLOUDY    24  20  84 NW3       30.21R                  
ORANGE         CLOUDY    27  21  78 CALM      30.19R                  
SPRINGFIELD    CLOUDY    30  22  71 NW3       30.18S                  
WESTFIELD      CLOUDY    30  23  75 SW5       30.20R WCI  25          
NORTH ADAMS    CLOUDY    29  23  78 W6        30.17S WCI  23          
PITTSFIELD     CLOUDY    27  22  81 NW5       30.12F WCI  22          
$$
 
RIZALL-220700-
RHODE ISLAND
  
CITY           SKY/WX    TMP DP  RH WIND       PRES   REMARKS
PROVIDENCE     CLOUDY    30  22  72 N6        30.21F WCI  24          
6HR MIN TEMP:  30; 6HR MAX TEMP:  32;                                

NEWPORT        CLOUDY    31  22  69 CALM      30.19F                  
BLOCK ISLAND   CLOUDY    32  23  69 CALM      30.21S                  
SMITHFIELD     CLOUDY    29  23  78 NW5       30.19S WCI  24          
WESTERLY       CLOUDY    32  22  66 CALM      30.21S                  
$$
 
CTZALL-220700-
CONNECTICUT
  
CITY           SKY/WX    TMP DP  RH WIND       PRES   REMARKS
BRADLEY INTL   CLOUDY    32  23  69 NW3       30.21R                  
6HR MIN TEMP:  32; 6HR MAX TEMP:  33;                                

HARTFORD       CLOUDY    33  23  66 W3        30.23R                  
BRIDGEPORT     CLOUDY    35  26  69 CALM      30.22R                  
DANBURY        CLOUDY    35  22  58 SW5       30.20S WCI  31          
GROTON         MOCLDY    32  22  66 N5        30.22R WCI  27          
NEW HAVEN      CLOUDY    35  25  66 NE5       30.21R WCI  31          
CHESTER        CLOUDY    30  25  80 CALM      30.20R                  
MERIDEN        CLOUDY    33  23  66 CALM      30.21S                  
WILLIMANTIC    CLOUDY    31  23  72 CALM      30.21F                  
OXFORD         CLOUDY    30  25  81 SW3       30.19R                  
$$

MEZ002-015-021-024-NHZ003-005-008-011-012-014-VTZ005-008-220700-
NORTHERN NEW ENGLAND
  
CITY           SKY/WX    TMP DP  RH WIND       PRES   REMARKS
PORTLAND ME    CLEAR     13  11  92 NW3       30.18S                  
6HR MIN TEMP:  11; 6HR MAX TEMP:  23;                                

BANGOR ME      CLEAR      3   0  87 CALM      30.17S                  
CONCORD NH     CLEAR     13  10  88 CALM      30.17R                  
MANCHESTER NH  PTCLDY    20  17  88 S3        30.17R                  
NASHUA NH      PTCLDY    23  20  88 SW3       30.20R                  
PORTSMOUTH NH  PTCLDY    19  15  87 CALM      30.19R                  
JAFFREY NH     PTCLDY    15  11  83 CALM      30.15R                  
KEENE NH       CLOUDY    26  24  92 SE3       30.19R                  
BURLINGTON VT  CLOUDY    28  23  81 S3        30.16F                  
MT. WASHINGTON MOCLDY    18 -13  25 W24         N/A  WCI   0          
$$

NYZ052-076-220700-
EASTERN NEW YORK
  
CITY           SKY/WX    TMP DP  RH WIND       PRES   REMARKS
ALBANY         CLOUDY    31  23  72 W5        30.19F WCI  26          
6HR MIN TEMP:  31; 6HR MAX TEMP:  32; 6HR PCP: TRACE;                

NEW YORK CITY  CLOUDY    37  23  56 NW5       30.21S                  
6HR MIN TEMP:  37; 6HR MAX TEMP:  38;                                

$$
 
ANZALL-220700-
MARINE OBSERVATIONS
  
STATION/POSITION TIME  TEMP    WIND        PRES    VSBY  WAVE
                       AIR SEA DIR/SP/G                  HT/PER
                 (UTC) (F)     (DEG/KT/KT) (MB)    (MI)  (FT/S)
BOSTON BUOY      0540      43              1023.3F
BUZZARDS BAY     0500   33     330/  3/  4 1023.4F
NANTUCKET SOUND  0550   32 42  270/  6/ 10 1023.0F         1/ 3
MASS BAY-STELLWA 0404   31 41  300/ 12/ 16 1022.4R  1 7/8  4/ 8
ISLE OF SHOALS   0500   29     280/ 13/ 14 1021.5F
S OF BLOCK IS    0556      44                N/A           2/10
$$

......................KEY.........................
  SKY/WX - SKY CONDITION/PRESENT WEATHER
  TMP    - TEMPERATURE IN FAHRENHEIT
  DWPT   - DEWPOINT IN FAHRENHEIT
  RH     - RELATIVE HUMIDITY IN PERCENT
  WIND   - DIRECTION AND SPEED IN MPH
  PRES   - MEAN SEA LEVEL PRESSURE IN INCHES OF HG
  WCI    - WIND CHILL INDEX
  VSB    - VISIBILITY IN MILES
  HX     - HEAT INDEX
  TC     - TEMPERATURE IN CELSIUS
  VRB    - VARIABLE WIND DIRECTION
  N/A    - NOT AVAILABLE
  
      

Other recent Regional Weather Roundups

Sat Jan 28, 10:10pm EST

Sat Jan 28, 9:10pm EST

Sat Jan 28, 8:10pm EST

Sat Jan 28, 7:10pm EST

Sat Jan 28, 6:10pm EST

Sat Jan 28, 5:10pm EST

Sat Jan 28, 4:10pm EST

Sat Jan 28, 3:10pm EST

Sat Jan 28, 2:10pm EST

Sat Jan 28, 1:10pm EST

Sat Jan 28, 12:10pm EST

Sat Jan 28, 11:10am EST

Sat Jan 28, 10:10am EST

Sat Jan 28, 9:10am EST

Sat Jan 28, 8:10am EST

Sat Jan 28, 7:10am EST

Sat Jan 28, 6:10am EST

Sat Jan 28, 5:10am EST

Sat Jan 28, 4:10am EST

Sat Jan 28, 3:10am EST

Sat Jan 28, 2:10am EST

Sat Jan 28, 1:10am EST

Sat Jan 28, 12:10am EST

Fri Jan 27, 11:10pm EST

Fri Jan 27, 10:10pm EST

Fri Jan 27, 9:10pm EST

Fri Jan 27, 8:10pm EST

Fri Jan 27, 7:10pm EST

Fri Jan 27, 6:10pm EST

Fri Jan 27, 5:10pm EST

Fri Jan 27, 4:10pm EST

Fri Jan 27, 3:10pm EST

Fri Jan 27, 2:10pm EST

Fri Jan 27, 1:10pm EST

Fri Jan 27, 12:10pm EST

Fri Jan 27, 11:10am EST

Fri Jan 27, 10:10am EST

Fri Jan 27, 9:10am EST

Fri Jan 27, 8:10am EST

Fri Jan 27, 7:10am EST

Fri Jan 27, 6:10am EST

Fri Jan 27, 5:10am EST

Fri Jan 27, 4:10am EST

Fri Jan 27, 3:10am EST

Fri Jan 27, 2:10am EST

Fri Jan 27, 1:10am EST

Fri Jan 27, 12:10am EST

Thu Jan 26, 11:10pm EST

Thu Jan 26, 10:10pm EST

Thu Jan 26, 9:10pm EST

Thu Jan 26, 8:10pm EST

Thu Jan 26, 7:10pm EST

Thu Jan 26, 6:10pm EST

Thu Jan 26, 5:10pm EST

Thu Jan 26, 4:10pm EST

Thu Jan 26, 3:10pm EST

Thu Jan 26, 2:10pm EST

Thu Jan 26, 1:10pm EST

Thu Jan 26, 12:10pm EST

Thu Jan 26, 11:10am EST

Thu Jan 26, 10:10am EST

Thu Jan 26, 9:10am EST

Thu Jan 26, 8:10am EST

Thu Jan 26, 7:10am EST

Thu Jan 26, 6:10am EST

Thu Jan 26, 5:10am EST

Thu Jan 26, 4:10am EST

Thu Jan 26, 3:10am EST

Thu Jan 26, 2:10am EST

Thu Jan 26, 1:10am EST

Thu Jan 26, 12:10am EST

Wed Jan 25, 11:10pm EST

Wed Jan 25, 10:10pm EST

Wed Jan 25, 9:10pm EST

Wed Jan 25, 8:10pm EST

Wed Jan 25, 7:10pm EST

Wed Jan 25, 6:10pm EST

Wed Jan 25, 5:10pm EST

Wed Jan 25, 4:10pm EST

Wed Jan 25, 3:10pm EST

Wed Jan 25, 2:10pm EST

Wed Jan 25, 1:10pm EST

Wed Jan 25, 12:10pm EST

Wed Jan 25, 11:10am EST

Wed Jan 25, 10:10am EST

Wed Jan 25, 9:10am EST

Wed Jan 25, 8:10am EST

Wed Jan 25, 7:10am EST

Wed Jan 25, 6:10am EST

Wed Jan 25, 5:10am EST

Wed Jan 25, 4:10am EST

Wed Jan 25, 3:10am EST

Wed Jan 25, 2:10am EST

Wed Jan 25, 1:10am EST

Wed Jan 25, 12:10am EST

Tue Jan 24, 11:10pm EST

Tue Jan 24, 10:10pm EST

Tue Jan 24, 9:10pm EST

Tue Jan 24, 8:10pm EST

Tue Jan 24, 7:10pm EST

Tue Jan 24, 6:10pm EST

Tue Jan 24, 5:10pm EST

Tue Jan 24, 4:10pm EST

Tue Jan 24, 3:10pm EST

Tue Jan 24, 2:10pm EST

Tue Jan 24, 1:10pm EST

Tue Jan 24, 12:10pm EST

Tue Jan 24, 11:10am EST

Tue Jan 24, 10:10am EST

Tue Jan 24, 9:10am EST

Tue Jan 24, 8:10am EST

Tue Jan 24, 7:10am EST

Tue Jan 24, 6:10am EST

Tue Jan 24, 5:10am EST

Tue Jan 24, 4:10am EST

Tue Jan 24, 3:10am EST

Tue Jan 24, 2:10am EST

Tue Jan 24, 1:10am EST

Tue Jan 24, 12:10am EST

Mon Jan 23, 11:10pm EST

Mon Jan 23, 10:10pm EST

Mon Jan 23, 9:10pm EST

Mon Jan 23, 8:10pm EST

Mon Jan 23, 7:10pm EST

Mon Jan 23, 6:10pm EST

Mon Jan 23, 5:10pm EST

Mon Jan 23, 4:10pm EST

Mon Jan 23, 3:10pm EST

Mon Jan 23, 2:10pm EST

Mon Jan 23, 1:10pm EST

Mon Jan 23, 12:10pm EST

Mon Jan 23, 11:10am EST

Mon Jan 23, 10:10am EST

Mon Jan 23, 9:10am EST

Mon Jan 23, 8:10am EST

Mon Jan 23, 7:10am EST

Mon Jan 23, 6:10am EST

Mon Jan 23, 5:10am EST

Mon Jan 23, 4:10am EST

Mon Jan 23, 3:10am EST

Mon Jan 23, 2:10am EST

Mon Jan 23, 1:10am EST

Mon Jan 23, 12:10am EST

Sun Jan 22, 11:10pm EST

Sun Jan 22, 10:10pm EST

Sun Jan 22, 9:10pm EST

Sun Jan 22, 8:10pm EST

Sun Jan 22, 7:10pm EST

Sun Jan 22, 6:10pm EST

Sun Jan 22, 5:10pm EST

Sun Jan 22, 4:10pm EST

Sun Jan 22, 3:10pm EST

Sun Jan 22, 2:10pm EST

Sun Jan 22, 1:10pm EST

Sun Jan 22, 12:10pm EST

Sun Jan 22, 11:10am EST

Sun Jan 22, 10:10am EST

Sun Jan 22, 9:10am EST

Sun Jan 22, 8:10am EST

Sun Jan 22, 7:10am EST

Sun Jan 22, 6:10am EST

Sun Jan 22, 5:10am EST

Sun Jan 22, 4:10am EST

Sun Jan 22, 3:10am EST

Sun Jan 22, 2:10am EST

Sun Jan 22, 12:10am EST

Sat Jan 21, 11:10pm EST